"startDT [UTC]","vpos","CH4 [ppm]","stdev(CH4) [ppm]","CO2 [ppm]","stdev(CO2) [ppm]","H2O_reported [%]","stdev(H2O_reported)","CavityPressure [torr]","CavityTemp [C]","OutletValve","CH4_dry [ppm]","CO2_dry [ppm]","DasTemp [C]","EtalonTemp [C]","WarmBoxTemp [C]","MPVPosition","T_ECpre [C]","T_EC1 [C]","T_EC2 [C]","p_inlet [hPa]","p_in [hPa]","p_out [hPa]","T_inlet [C]","RH_inlet [%]","dwpt_inlet [C]","T_vent [C]","RH_vent [%]","dwpt_vent [C]","flow_vent [l min-1]","flow_inlet [l min-1]","dwpt_sample [C]","T_room [C]"
2015-10-02 00:00:00,0.0,1.92611,0.00035,391.092,0.035,0.5906,0.0019,140.003,45.001,31763.05645,1.93751,393.920,34.814,45.068,44.999,0.00,0.09,-272.75,-272.81,-9,525,-942,21.6,17.7,-4.0,21.7,18.0,-3.7,5.73,2.04,-2.3,27.0
2015-10-02 00:01:00,0.0,1.92595,0.00044,391.080,0.046,0.5924,0.0022,139.998,45.000,31760.25533,1.93739,393.917,34.738,45.067,44.999,0.00,0.09,-272.74,-272.80,-9,525,-942,21.6,17.8,-3.9,21.7,18.0,-3.7,5.73,2.05,-2.3,27.0
2015-10-02 00:02:00,0.0,1.92629,0.00034,391.108,0.045,0.5950,0.0016,140.001,44.999,31755.70538,1.93776,393.959,34.663,45.067,44.999,0.00,0.09,-272.73,-272.80,-9,525,-942,21.6,17.8,-3.9,21.7,18.0,-3.6,5.73,1.99,-2.3,27.0
2015-10-02 00:03:00,0.0,1.92573,0.00055,391.051,0.071,0.5986,0.0025,139.999,44.998,31751.81737,1.93730,393.920,34.588,45.067,44.998,0.00,0.09,-272.74,-272.80,-9,525,-942,21.7,17.9,-3.8,21.7,18.1,-3.5,5.73,1.91,-2.3,27.0
2015-10-02 00:04:00,0.0,1.92626,0.00052,391.053,0.053,0.6010,0.0020,140.000,44.998,31747.99341,1.93785,393.930,34.527,45.067,44.999,0.00,0.09,-272.74,-272.80,-9,525,-942,21.7,18.0,-3.7,21.7,18.2,-3.5,5.73,1.84,-2.3,27.0
2015-10-02 00:05:00,0.0,1.92596,0.00051,391.040,0.042,0.6005,0.0018,140.000,44.999,31745.06453,1.93757,393.918,34.502,45.067,44.999,0.00,0.09,-272.74,-272.79,-9,525,-942,21.6,18.0,-3.7,21.7,18.2,-3.5,5.73,1.83,-2.3,26.9
2015-10-02 00:06:00,0.0,1.92625,0.00056,391.110,0.063,0.6021,0.0023,140.001,44.999,31744.04561,1.93785,393.992,34.500,45.068,45.000,0.00,0.09,-272.75,-272.79,-9,525,-942,21.6,18.0,-3.7,21.7,18.3,-3.5,5.73,1.99,-2.3,26.9
2015-10-02 00:07:00,0.0,1.92577,0.00048,391.085,0.065,0.6036,0.0017,140.000,45.000,31745.07408,1.93745,393.979,34.528,45.069,45.000,0.00,0.09,-272.75,-272.81,-8,525,-942,21.6,18.1,-3.7,21.7,18.3,-3.4,5.73,2.10,-2.3,26.9
2015-10-02 00:08:00,0.0,1.92566,0.00029,391.045,0.040,0.6016,0.0022,140.006,45.000,31749.69899,1.93726,393.927,34.563,45.069,45.001,0.00,0.09,-272.74,-272.80,-8,525,-942,21.6,18.1,-3.7,21.7,18.3,-3.4,5.73,1.95,-2.3,27.0
2015-10-02 00:09:00,0.0,1.92618,0.00035,391.104,0.064,0.6025,0.0017,140.001,45.001,31749.84611,1.93781,393.989,34.591,45.069,45.001,0.00,0.09,-272.74,-272.80,-9,525,-942,21.6,18.1,-3.7,21.7,18.3,-3.5,5.73,1.77,-2.2,27.0
2015-10-02 00:10:00,0.0,1.92637,0.00044,391.101,0.039,0.6019,0.0023,139.998,45.001,31753.06997,1.93799,393.984,34.624,45.069,45.001,0.00,0.09,-272.74,-272.80,-9,525,-942,21.5,18.1,-3.7,21.6,18.3,-3.5,5.73,1.93,-2.2,27.0
2015-10-02 00:11:00,0.0,1.92517,0.00057,391.044,0.064,0.6033,0.0015,139.999,45.001,31755.77556,1.93688,393.936,34.656,45.070,45.001,0.00,0.09,-272.75,-272.80,-9,525,-942,21.5,18.2,-3.7,21.6,18.4,-3.5,5.73,2.10,-2.2,27.0
2015-10-02 00:12:00,0.0,1.92437,0.00048,390.966,0.044,0.6031,0.0014,140.000,45.001,31758.26884,1.93600,393.855,34.687,45.069,45.001,0.00,0.09,-272.73,-272.80,-8,525,-942,21.5,18.2,-3.7,21.6,18.4,-3.4,5.73,1.99,-2.3,27.0
2015-10-02 00:13:00,0.0,1.92417,0.00056,390.900,0.067,0.6010,0.0020,140.002,45.001,31763.37774,1.93581,393.781,34.681,45.069,45.000,0.00,0.09,-272.74,-272.80,-8,525,-942,21.4,18.1,-3.8,21.6,18.4,-3.5,5.73,1.82,-2.3,26.9
2015-10-02 00:14:00,0.0,1.92387,0.00049,390.865,0.068,0.5997,0.0023,139.999,45.000,31760.73933,1.93542,393.736,34.624,45.069,45.000,0.00,0.09,-272.74,-272.81,-8,525,-942,21.4,18.1,-3.8,21.6,18.3,-3.5,5.73,1.84,-2.3,26.9
2015-10-02 00:15:00,0.0,1.92424,0.00061,390.925,0.064,0.6000,0.0015,139.997,45.000,31757.25513,1.93582,393.798,34.571,45.068,45.000,0.00,0.09,-272.74,-272.80,-9,525,-942,21.4,18.1,-3.8,21.6,18.3,-3.5,5.73,1.96,-2.3,26.9
2015-10-02 00:16:00,0.0,1.92407,0.00046,390.964,0.064,0.5990,0.0017,140.000,44.999,31753.89499,1.93560,393.831,34.513,45.068,44.999,0.00,0.09,-272.74,-272.80,-9,525,-942,21.4,18.1,-3.8,21.6,18.3,-3.5,5.73,2.06,-2.3,26.9
2015-10-02 00:17:00,0.0,1.92398,0.00094,390.945,0.104,0.5990,0.0017,139.998,44.999,31750.98768,1.93558,393.817,34.497,45.068,44.999,0.00,0.09,-272.74,-272.81,-9,525,-942,21.4,18.1,-3.8,21.6,18.3,-3.5,5.73,2.05,-2.3,26.9
2015-10-02 00:18:00,0.0,1.92294,0.00056,390.902,0.044,0.5988,0.0019,140.001,44.999,31749.79590,1.93446,393.767,34.485,45.068,44.999,0.00,0.09,-272.74,-272.80,-9,525,-942,21.4,18.1,-3.8,21.6,18.3,-3.5,5.73,1.90,-2.3,26.9
2015-10-02 00:19:00,0.0,1.92313,0.00051,390.912,0.042,0.5984,0.0021,139.999,45.000,31749.45133,1.93469,393.780,34.497,45.068,45.000,0.00,0.09,-272.74,-272.79,-9,525,-942,21.4,18.1,-3.8,21.5,18.3,-3.6,5.73,1.78,-2.3,26.9
2015-10-02 00:20:00,0.0,1.92328,0.00041,390.935,0.060,0.5984,0.0017,140.002,45.000,31751.65866,1.93479,393.796,34.509,45.069,45.000,0.00,0.09,-272.75,-272.80,-8,525,-942,21.4,18.1,-3.8,21.5,18.3,-3.5,5.73,1.94,-2.3,26.9
2015-10-02 00:21:00,0.0,1.92345,0.00052,390.971,0.056,0.5998,0.0022,140.002,45.000,31752.25610,1.93499,393.845,34.556,45.069,45.001,0.00,0.09,-272.75,-272.80,-8,525,-942,21.4,18.2,-3.8,21.5,18.4,-3.5,5.73,2.10,-2.3,26.8
2015-10-02 00:22:00,0.0,1.92338,0.00032,390.979,0.041,0.5989,0.0020,139.999,45.000,31751.47252,1.93494,393.846,34.563,45.069,45.001,0.00,0.09,-272.74,-272.80,-8,524,-942,21.3,18.2,-3.8,21.5,18.4,-3.6,5.73,2.00,-2.3,26.9
2015-10-02 00:23:00,0.0,1.92372,0.00047,391.026,0.072,0.6001,0.0017,140.001,45.000,31755.70845,1.93530,393.900,34.560,45.069,45.000,0.00,0.09,-272.74,-272.80,-9,525,-942,21.3,18.2,-3.8,21.5,18.4,-3.5,5.73,1.84,-2.3,26.8
2015-10-02 00:24:00,0.0,1.92369,0.00038,391.062,0.047,0.6006,0.0016,140.000,45.000,31753.25963,1.93526,393.939,34.507,45.068,45.000,0.00,0.09,-272.74,-272.80,-9,525,-942,21.4,18.2,-3.8,21.5,18.4,-3.5,5.73,1.83,-2.2,26.8
2015-10-02 00:25:00,0.0,1.92398,0.00035,391.055,0.071,0.5998,0.0019,139.998,45.000,31750.62033,1.93554,393.930,34.450,45.068,44.999,0.00,0.09,-272.74,-272.80,-9,525,-942,21.4,18.2,-3.8,21.5,18.4,-3.5,5.73,1.93,-2.3,26.8
2015-10-02 00:26:00,0.0,1.92385,0.00039,391.055,0.066,0.5990,0.0020,140.000,44.999,31747.84940,1.93543,393.923,34.423,45.068,44.999,0.00,0.09,-272.74,-272.79,-9,525,-942,21.4,18.2,-3.8,21.5,18.4,-3.6,5.73,2.06,-2.3,26.8
2015-10-02 00:27:00,0.0,1.92372,0.00032,391.020,0.042,0.5974,0.0013,140.000,44.999,31747.40654,1.93524,393.881,34.431,45.068,44.999,0.00,0.09,-272.74,-272.81,-8,525,-942,21.3,18.1,-3.9,21.5,18.4,-3.6,5.73,2.06,-2.3,26.8
2015-10-02 00:28:00,0.0,1.92387,0.00046,391.002,0.066,0.5976,0.0020,139.999,45.000,31746.75843,1.93538,393.864,34.439,45.068,45.000,0.00,0.09,-272.74,-272.81,-8,525,-942,21.3,18.2,-3.8,21.5,18.4,-3.6,5.73,1.89,-2.3,26.8
2015-10-02 00:29:00,0.0,1.92375,0.00038,390.976,0.039,0.5974,0.0026,139.998,45.000,31746.16622,1.93527,393.837,34.477,45.068,45.000,0.00,0.09,-272.73,-272.80,-8,525,-942,21.3,18.1,-3.9,21.4,18.4,-3.6,5.73,1.80,-2.3,26.8
2015-10-02 00:30:00,0.0,1.92433,0.00037,391.023,0.041,0.5995,0.0026,139.996,45.000,31745.87596,1.93589,393.894,34.522,45.069,45.000,0.00,0.09,-272.74,-272.80,-9,524,-942,21.3,18.3,-3.8,21.4,18.4,-3.6,5.73,1.95,-2.3,26.8
2015-10-02 00:31:00,0.0,1.92489,0.00046,391.010,0.044,0.5998,0.0013,140.000,45.000,31748.31680,1.93642,393.882,34.524,45.069,45.000,0.00,0.09,-272.75,-272.80,-9,525,-942,21.3,18.3,-3.8,21.4,18.5,-3.5,5.73,2.09,-2.3,26.7
2015-10-02 00:32:00,0.0,1.92536,0.00035,391.052,0.031,0.6013,0.0019,139.999,45.000,31747.44911,1.93694,393.932,34.500,45.068,45.000,0.00,0.09,-272.74,-272.80,-9,525,-942,21.3,18.3,-3.8,21.4,18.5,-3.5,5.73,2.03,-2.3,26.8
2015-10-02 00:33:00,0.0,1.92663,0.00040,391.069,0.038,0.6044,0.0019,140.000,45.000,31747.58822,1.93827,393.966,34.501,45.068,45.000,0.00,0.09,-272.74,-272.80,-8,525,-942,21.3,18.4,-3.7,21.4,18.6,-3.4,5.73,1.84,-2.3,26.8
2015-10-02 00:34:00,0.0,1.92745,0.00052,390.994,0.048,0.6010,0.0028,139.999,45.000,31748.79920,1.93905,393.874,34.522,45.068,45.000,0.00,0.09,-272.75,-272.80,-8,524,-942,21.3,18.3,-3.8,21.4,18.6,-3.5,5.73,1.82,-2.3,26.8
2015-10-02 00:35:00,0.0,1.92701,0.00042,391.083,0.039,0.5975,0.0016,140.000,45.000,31749.22247,1.93858,393.942,34.546,45.068,45.000,0.00,0.09,-272.74,-272.80,-8,524,-942,21.2,18.3,-3.8,21.4,18.5,-3.6,5.73,2.01,-2.3,26.7
2015-10-02 00:36:00,0.0,1.92579,0.00136,391.004,0.137,0.5997,0.0022,140.002,45.000,31749.65525,1.93741,393.881,34.560,45.069,45.000,0.00,0.09,-272.74,-272.80,-8,524,-942,21.2,18.3,-3.8,21.4,18.5,-3.5,5.73,2.09,-2.3,26.7
2015-10-02 00:37:00,0.0,1.92647,0.00051,391.075,0.063,0.5992,0.0019,140.000,45.000,31749.30155,1.93798,393.942,34.521,45.068,45.000,0.00,0.09,-272.74,-272.81,-9,524,-942,21.2,18.3,-3.8,21.4,18.6,-3.5,5.73,1.98,-2.2,26.7
2015-10-02 00:38:00,0.0,1.92523,0.00098,391.028,0.113,0.6012,0.0024,140.001,45.000,31748.13675,1.93691,393.913,34.500,45.068,45.000,0.00,0.09,-272.74,-272.80,-9,525,-942,21.2,18.4,-3.7,21.4,18.6,-3.5,5.73,1.85,-2.3,26.7
2015-10-02 00:39:00,0.0,1.92346,0.00072,390.777,0.109,0.6096,0.0032,140.000,44.999,31745.76523,1.93523,393.698,34.461,45.068,44.999,0.00,0.09,-272.74,-272.80,-9,525,-942,21.3,18.6,-3.5,21.4,18.8,-3.3,5.73,1.83,-2.3,26.7
2015-10-02 00:40:00,0.0,1.92490,0.00068,390.903,0.102,0.6092,0.0031,140.000,44.999,31741.32086,1.93660,393.817,34.438,45.068,44.999,0.00,0.09,-272.74,-272.80,-8,524,-942,21.3,18.6,-3.5,21.4,18.9,-3.3,5.73,1.94,-2.3,26.7
2015-10-02 00:41:00,0.0,1.92590,0.00045,391.046,0.036,0.6057,0.0014,140.001,44.999,31740.06445,1.93756,393.945,34.438,45.068,44.999,0.00,0.09,-272.75,-272.81,-8,525,-942,21.3,18.5,-3.6,21.4,18.8,-3.4,5.73,2.08,-2.3,26.7
2015-10-02 00:42:00,0.0,1.92657,0.00046,391.088,0.056,0.6063,0.0021,139.998,45.000,31738.74617,1.93827,393.994,34.443,45.068,45.000,0.00,0.09,-272.74,-272.80,-8,524,-942,21.2,18.6,-3.6,21.3,18.8,-3.4,5.73,2.04,-2.3,26.7
2015-10-02 00:43:00,0.0,1.92670,0.00034,391.134,0.081,0.6083,0.0017,139.999,45.000,31738.68217,1.93845,394.046,34.451,45.068,45.000,0.00,0.09,-272.74,-272.80,-8,524,-942,21.2,18.6,-3.6,21.3,18.8,-3.4,5.73,1.86,-2.3,26.7
2015-10-02 00:44:00,0.0,1.92668,0.00040,391.127,0.052,0.6096,0.0019,140.001,45.000,31738.76851,1.93848,394.051,34.455,45.069,45.000,0.00,0.09,-272.74,-272.81,-9,524,-942,21.2,18.7,-3.6,21.3,18.9,-3.3,5.73,1.81,-2.3,26.7
2015-10-02 00:45:00,0.0,1.92670,0.00047,391.160,0.058,0.6107,0.0019,140.000,45.000,31740.04191,1.93850,394.087,34.442,45.069,45.000,0.00,0.09,-272.75,-272.80,-9,524,-942,21.2,18.7,-3.5,21.3,18.9,-3.3,5.73,1.98,-2.3,26.7
2015-10-02 00:46:00,0.0,1.92692,0.00039,391.161,0.083,0.6122,0.0023,140.000,45.000,31738.65881,1.93873,394.096,34.445,45.069,45.000,0.00,0.09,-272.74,-272.79,-9,524,-942,21.2,18.8,-3.5,21.3,19.0,-3.3,5.73,2.10,-2.3,26.7
2015-10-02 00:47:00,0.0,1.92694,0.00048,391.147,0.052,0.6111,0.0016,140.000,45.001,31740.35177,1.93875,394.076,34.485,45.069,45.001,0.00,0.09,-272.75,-272.80,-8,524,-942,21.2,18.8,-3.5,21.3,19.0,-3.2,5.73,1.97,-2.3,26.7
2015-10-02 00:48:00,0.0,1.92697,0.00029,391.194,0.039,0.6129,0.0017,140.001,45.001,31742.65944,1.93881,394.132,34.537,45.069,45.001,0.00,0.09,-272.75,-272.80,-8,524,-942,21.2,18.9,-3.5,21.3,19.0,-3.2,5.73,1.79,-2.3,26.7
2015-10-02 00:49:00,0.0,1.92699,0.00050,391.064,0.066,0.6140,0.0018,140.001,45.001,31745.20796,1.93880,394.008,34.581,45.069,45.001,0.00,0.09,-272.75,-272.79,-8,524,-942,21.2,18.9,-3.4,21.3,19.1,-3.2,5.73,1.91,-2.3,26.7
2015-10-02 00:50:00,0.0,1.92677,0.00053,391.087,0.042,0.6136,0.0015,139.999,45.001,31747.72595,1.93865,394.028,34.614,45.069,45.000,0.00,0.09,-272.75,-272.80,-9,524,-942,21.2,18.9,-3.4,21.3,19.1,-3.2,5.73,2.10,-2.3,26.6
2015-10-02 00:51:00,0.0,1.92704,0.00043,391.138,0.038,0.6124,0.0019,140.000,45.000,31748.60766,1.93887,394.073,34.606,45.069,45.000,0.00,0.09,-272.74,-272.81,-9,524,-942,21.2,18.9,-3.4,21.3,19.1,-3.2,5.73,2.03,-2.3,26.6
2015-10-02 00:52:00,0.0,1.92685,0.00041,391.112,0.036,0.6142,0.0015,139.999,45.000,31748.34997,1.93876,394.057,34.558,45.068,45.000,0.00,0.09,-272.74,-272.81,-9,524,-942,21.2,18.9,-3.4,21.3,19.1,-3.2,5.73,1.88,-2.2,26.6
2015-10-02 00:53:00,0.0,1.92717,0.00038,391.198,0.059,0.6142,0.0019,140.000,44.999,31746.43814,1.93899,394.139,34.495,45.068,44.999,0.00,0.09,-272.73,-272.80,-8,524,-942,21.2,18.9,-3.4,21.3,19.1,-3.2,5.73,1.83,-2.3,26.6
2015-10-02 00:54:00,0.0,1.92768,0.00028,391.167,0.048,0.6152,0.0027,139.997,44.999,31740.54722,1.93955,394.120,34.443,45.067,44.999,0.00,0.09,-272.74,-272.80,-8,524,-942,21.3,18.9,-3.4,21.3,19.1,-3.1,5.73,1.89,-2.3,26.6
2015-10-02 00:55:00,0.0,1.92774,0.00037,391.082,0.045,0.6142,0.0023,139.999,44.999,31738.52127,1.93963,394.025,34.416,45.068,44.999,0.00,0.09,-272.75,-272.80,-8,524,-942,21.3,18.8,-3.4,21.3,19.1,-3.2,5.73,2.01,-2.2,26.6
2015-10-02 00:56:00,0.0,1.92757,0.00047,391.138,0.058,0.6127,0.0017,140.002,44.999,31736.22589,1.93944,394.075,34.375,45.068,44.999,0.00,0.09,-272.74,-272.80,-8,524,-942,21.3,18.8,-3.4,21.3,19.1,-3.2,5.73,2.09,-2.2,26.6
2015-10-02 00:57:00,0.0,1.92722,0.00068,391.036,0.050,0.6122,0.0017,140.000,44.999,31737.10052,1.93903,393.971,34.403,45.068,45.000,0.00,0.09,-272.74,-272.81,-8,524,-942,21.2,18.8,-3.5,21.3,19.0,-3.2,5.73,1.96,-2.2,26.6
2015-10-02 00:58:00,0.0,1.92706,0.00052,391.083,0.040,0.6139,0.0012,140.001,45.000,31737.46098,1.93896,394.026,34.459,45.069,45.001,0.00,0.09,-272.75,-272.81,-9,524,-942,21.3,18.8,-3.5,21.3,19.1,-3.2,5.73,1.78,-2.3,26.6
2015-10-02 00:59:00,0.0,1.92587,0.00037,391.165,0.064,0.6111,0.0028,139.998,45.000,31739.23676,1.93770,394.093,34.514,45.069,45.001,0.00,0.09,-272.74,-272.80,-9,524,-942,21.3,18.7,-3.5,21.3,19.0,-3.2,5.73,1.93,-2.2,26.6
2015-10-02 01:00:00,0.0,1.92553,0.00053,391.092,0.097,0.6088,0.0018,140.001,45.001,31742.42566,1.93730,394.013,34.574,45.069,45.001,0.00,0.09,-272.74,-272.80,-8,524,-942,21.3,18.6,-3.5,21.3,18.9,-3.3,5.73,2.13,-2.2,26.7
2015-10-02 01:01:00,0.0,1.92499,0.00051,391.026,0.093,0.6087,0.0024,139.999,45.001,31743.86401,1.93671,393.940,34.631,45.069,45.001,0.00,0.09,-272.74,-272.81,-8,524,-942,21.3,18.7,-3.5,21.3,18.9,-3.3,5.73,1.94,-2.3,26.7
2015-10-02 01:02:00,0.0,1.92560,0.00041,391.107,0.065,0.6069,0.0020,140.000,45.001,31748.28629,1.93731,394.017,34.645,45.069,45.001,0.00,0.09,-272.74,-272.80,-8,524,-942,21.3,18.6,-3.6,21.3,18.9,-3.3,5.73,1.79,-2.2,26.7
2015-10-02 01:03:00,0.0,1.92601,0.00039,391.075,0.033,0.6085,0.0017,140.000,45.001,31748.67219,1.93777,393.990,34.620,45.068,45.000,0.00,0.09,-272.74,-272.79,-8,524,-942,21.3,18.6,-3.6,21.4,18.9,-3.3,5.73,1.90,-2.2,26.7
2015-10-02 01:04:00,0.0,1.92589,0.00031,391.039,0.038,0.6085,0.0019,139.998,45.000,31746.49463,1.93762,393.956,34.569,45.068,44.999,0.00,0.09,-272.75,-272.80,-9,524,-942,21.3,18.6,-3.5,21.4,18.9,-3.3,5.73,2.06,-2.2,26.7
2015-10-02 01:05:00,0.0,1.92628,0.00029,391.162,0.043,0.6098,0.0016,139.998,45.000,31745.77111,1.93806,394.083,34.540,45.068,44.999,0.00,0.09,-272.74,-272.81,-9,524,-942,21.3,18.6,-3.5,21.4,18.9,-3.2,5.73,2.07,-2.2,26.8
2015-10-02 01:06:00,0.0,1.92535,0.00060,391.108,0.109,0.6094,0.0015,140.001,44.999,31745.37784,1.93714,394.034,34.504,45.068,44.999,0.00,0.09,-272.73,-272.81,-9,524,-942,21.3,18.6,-3.5,21.4,18.9,-3.3,5.73,1.92,-2.2,26.7
2015-10-02 01:07:00,0.0,1.92517,0.00028,391.075,0.075,0.6095,0.0018,140.001,45.000,31746.37163,1.93693,393.994,34.506,45.068,45.000,0.00,0.09,-272.74,-272.80,-8,524,-942,21.3,18.6,-3.6,21.4,18.9,-3.3,5.73,1.79,-2.3,26.7
2015-10-02 01:08:00,0.0,1.92552,0.00039,391.108,0.042,0.6085,0.0018,140.002,45.000,31746.42365,1.93726,394.023,34.548,45.069,45.000,0.00,0.09,-272.75,-272.81,-8,524,-942,21.3,18.6,-3.5,21.3,18.9,-3.3,5.73,1.91,-2.2,26.7
2015-10-02 01:09:00,0.0,1.92555,0.00049,391.088,0.044,0.6100,0.0017,139.998,45.000,31745.73526,1.93732,394.009,34.520,45.069,45.001,0.00,0.09,-272.74,-272.80,-8,524,-942,21.3,18.7,-3.5,21.3,18.9,-3.3,5.73,2.08,-2.2,26.7
2015-10-02 01:10:00,0.0,1.92574,0.00043,391.136,0.083,0.6116,0.0015,139.996,45.000,31743.24730,1.93755,394.069,34.537,45.069,45.000,0.00,0.09,-272.75,-272.80,-9,524,-942,21.3,18.7,-3.5,21.3,18.9,-3.3,5.73,2.05,-2.2,26.7
2015-10-02 01:11:00,0.0,1.92567,0.00046,391.074,0.069,0.6117,0.0021,139.999,45.000,31744.44473,1.93745,394.004,34.551,45.069,45.000,0.00,0.09,-272.74,-272.81,-9,524,-942,21.2,18.8,-3.5,21.3,19.0,-3.2,5.73,1.85,-2.2,26.7
2015-10-02 01:12:00,0.0,1.92623,0.00050,391.202,0.061,0.6140,0.0017,140.000,45.000,31745.44763,1.93814,394.146,34.566,45.069,45.000,0.00,0.09,-272.74,-272.80,-8,524,-942,21.2,18.8,-3.5,21.3,19.0,-3.2,5.73,1.81,-2.2,26.7
2015-10-02 01:13:00,0.0,1.92545,0.00055,391.124,0.046,0.6135,0.0013,140.000,45.000,31746.19563,1.93728,394.066,34.570,45.069,45.000,0.00,0.09,-272.74,-272.80,-8,524,-942,21.2,18.8,-3.5,21.3,19.1,-3.2,5.73,2.00,-2.2,26.7
2015-10-02 01:14:00,0.0,1.92440,0.00083,390.946,0.121,0.6127,0.0020,139.999,45.000,31746.32262,1.93627,393.885,34.564,45.069,45.000,0.00,0.09,-272.75,-272.80,-8,524,-942,21.2,18.8,-3.5,21.3,19.0,-3.2,5.73,2.09,-2.2,26.7
2015-10-02 01:15:00,0.0,1.92407,0.00044,390.936,0.048,0.6119,0.0017,140.000,45.000,31747.17928,1.93587,393.867,34.548,45.068,45.000,0.00,0.09,-272.74,-272.80,-8,524,-942,21.3,18.8,-3.5,21.3,19.0,-3.2,5.73,1.98,-2.2,26.7
2015-10-02 01:16:00,0.0,1.92451,0.00037,391.041,0.062,0.6122,0.0018,140.000,45.000,31744.79740,1.93629,393.970,34.506,45.068,45.000,0.00,0.09,-272.74,-272.80,-9,524,-942,21.2,18.8,-3.5,21.3,19.0,-3.2,5.73,1.82,-2.2,26.7
2015-10-02 01:17:00,0.0,1.92488,0.00049,391.194,0.059,0.6123,0.0025,139.999,45.000,31743.49254,1.93671,394.132,34.507,45.068,45.000,0.00,0.09,-272.74,-272.80,-9,524,-942,21.3,18.8,-3.5,21.3,19.0,-3.2,5.73,1.85,-2.2,26.6
2015-10-02 01:18:00,0.0,1.92433,0.00039,391.134,0.039,0.6091,0.0021,140.002,45.000,31743.03994,1.93608,394.052,34.502,45.068,45.000,0.00,0.09,-272.75,-272.80,-9,524,-942,21.3,18.6,-3.6,21.3,18.9,-3.3,5.73,2.01,-2.2,26.7
2015-10-02 01:19:00,0.0,1.92421,0.00030,391.118,0.065,0.6059,0.0025,140.000,45.000,31742.85051,1.93590,394.021,34.500,45.068,44.999,0.00,0.09,-272.74,-272.80,-8,524,-942,21.3,18.5,-3.6,21.3,18.8,-3.4,5.73,2.09,-2.2,26.7
2015-10-02 01:20:00,0.0,1.92419,0.00047,391.024,0.071,0.6044,0.0013,139.997,45.000,31740.99121,1.93586,393.923,34.503,45.068,45.000,0.00,0.09,-272.73,-272.81,-8,524,-942,21.3,18.5,-3.7,21.3,18.8,-3.4,5.73,1.96,-2.2,26.7
2015-10-02 01:21:00,0.0,1.92461,0.00030,391.020,0.039,0.6035,0.0018,140.002,45.000,31740.14794,1.93623,393.912,34.518,45.068,45.000,0.00,0.09,-272.74,-272.81,-8,524,-942,21.3,18.5,-3.7,21.3,18.7,-3.4,5.73,1.79,-2.2,26.7
2015-10-02 01:22:00,0.0,1.92486,0.00051,391.060,0.068,0.6036,0.0018,139.999,45.000,31741.37776,1.93649,393.952,34.558,45.068,45.000,0.00,0.09,-272.74,-272.80,-8,524,-942,21.3,18.5,-3.7,21.3,18.8,-3.4,5.73,1.89,-2.2,26.6
2015-10-02 01:23:00,0.0,1.92488,0.00038,391.023,0.033,0.6033,0.0019,140.000,45.000,31742.17351,1.93651,393.912,34.560,45.068,45.000,0.00,0.09,-272.74,-272.79,-9,524,-942,21.3,18.5,-3.7,21.3,18.7,-3.4,5.73,2.06,-2.2,26.6
2015-10-02 01:24:00,0.0,1.92529,0.00041,391.097,0.054,0.6040,0.0017,139.999,45.000,31740.42699,1.93694,393.989,34.517,45.068,45.000,0.00,0.09,-272.75,-272.81,-9,524,-942,21.3,18.5,-3.7,21.3,18.7,-3.4,5.73,2.06,-2.2,26.7
2015-10-02 01:25:00,0.0,1.92525,0.00034,391.056,0.052,0.6043,0.0029,140.001,45.000,31740.98986,1.93693,393.954,34.476,45.068,45.000,0.00,0.09,-272.75,-272.81,-9,524,-942,21.3,18.4,-3.7,21.3,18.7,-3.4,5.73,1.94,-2.2,26.6
2015-10-02 01:26:00,0.0,1.92540,0.00037,391.058,0.049,0.6013,0.0019,140.001,44.999,31735.99127,1.93700,393.937,34.414,45.068,44.999,0.00,0.09,-272.74,-272.80,-9,524,-942,21.3,18.4,-3.7,21.4,18.7,-3.4,5.73,1.84,-2.2,26.7
2015-10-02 01:27:00,0.0,1.92583,0.00036,391.091,0.035,0.6012,0.0021,140.001,44.999,31733.25347,1.93742,393.971,34.369,45.068,44.999,0.00,0.09,-272.74,-272.80,-8,524,-942,21.3,18.3,-3.7,21.4,18.7,-3.5,5.73,1.83,-2.2,26.7
2015-10-02 01:28:00,0.0,1.92588,0.00047,391.112,0.032,0.6024,0.0014,139.998,44.999,31729.71969,1.93750,393.999,34.327,45.068,44.999,0.00,0.09,-272.75,-272.81,-8,524,-942,21.3,18.4,-3.7,21.3,18.7,-3.5,5.73,1.96,-2.2,26.7
2015-10-02 01:29:00,0.0,1.92592,0.00032,391.168,0.060,0.6034,0.0016,139.998,45.000,31730.45702,1.93757,394.059,34.363,45.068,45.000,0.00,0.09,-272.74,-272.80,-8,524,-942,21.3,18.4,-3.7,21.3,18.7,-3.4,5.73,2.11,-2.2,26.6
2015-10-02 01:30:00,0.0,1.92594,0.00053,391.067,0.066,0.6035,0.0017,140.000,45.000,31731.48666,1.93762,393.957,34.393,45.069,45.001,0.00,0.09,-272.74,-272.80,-8,524,-942,21.3,18.4,-3.7,21.4,18.7,-3.4,5.73,1.99,-2.2,26.6
2015-10-02 01:31:00,0.0,1.92613,0.00027,391.131,0.048,0.6027,0.0018,140.001,45.001,31733.86266,1.93772,394.021,34.446,45.069,45.001,0.00,0.09,-272.74,-272.80,-9,524,-942,21.3,18.4,-3.7,21.3,18.7,-3.4,5.73,1.79,-2.2,26.7
2015-10-02 01:32:00,0.0,1.92643,0.00036,391.173,0.048,0.6030,0.0014,140.000,45.001,31736.40731,1.93807,394.062,34.526,45.070,45.001,0.00,0.09,-272.75,-272.80,-9,524,-942,21.3,18.4,-3.7,21.4,18.7,-3.4,5.73,1.93,-2.2,26.7
2015-10-02 01:33:00,0.0,1.92712,0.00042,391.217,0.037,0.6042,0.0014,139.999,45.001,31737.75979,1.93877,394.112,34.592,45.070,45.001,0.00,0.09,-272.74,-272.80,-8,524,-942,21.3,18.4,-3.7,21.4,18.7,-3.4,5.73,2.12,-2.2,26.7
2015-10-02 01:34:00,0.0,1.92731,0.00033,391.213,0.046,0.6063,0.0014,140.003,45.001,31743.32387,1.93904,394.121,34.653,45.069,45.001,0.00,0.09,-272.74,-272.80,-8,524,-942,21.3,18.5,-3.6,21.4,18.8,-3.3,5.73,1.95,-2.2,26.7
2015-10-02 01:35:00,0.0,1.92698,0.00031,391.207,0.053,0.6058,0.0014,140.001,45.001,31747.66640,1.93867,394.109,34.669,45.069,45.000,0.00,0.09,-272.74,-272.81,-8,524,-942,21.3,18.5,-3.6,21.4,18.8,-3.3,5.73,1.80,-2.2,26.7
2015-10-02 01:36:00,0.0,1.92695,0.00029,391.190,0.040,0.6067,0.0018,139.999,45.000,31748.23869,1.93868,394.099,34.608,45.068,44.999,0.00,0.09,-272.74,-272.80,-9,524,-942,21.3,18.5,-3.6,21.4,18.8,-3.3,5.73,1.89,-2.2,26.7
2015-10-02 01:37:00,0.0,1.92708,0.00032,391.181,0.033,0.6048,0.0013,139.999,45.000,31746.51633,1.93873,394.078,34.554,45.068,44.999,0.00,0.09,-272.74,-272.80,-9,525,-942,21.4,18.4,-3.6,21.4,18.7,-3.3,5.73,2.01,-2.2,26.7
2015-10-02 01:38:00,0.0,1.92712,0.00047,391.234,0.040,0.6060,0.0019,140.000,44.999,31744.48427,1.93887,394.139,34.494,45.067,44.999,0.00,0.09,-272.75,-272.80,-9,525,-942,21.4,18.4,-3.6,21.5,18.7,-3.3,5.73,2.06,-2.2,26.7
2015-10-02 01:39:00,0.0,1.92722,0.00029,391.229,0.027,0.6058,0.0018,140.001,44.999,31740.95284,1.93888,394.133,34.420,45.067,44.999,0.00,0.09,-272.74,-272.80,-9,525,-942,21.4,18.4,-3.6,21.5,18.7,-3.3,5.73,2.01,-2.2,26.7
2015-10-02 01:40:00,0.0,1.92732,0.00073,391.322,0.056,0.6061,0.0021,139.999,44.999,31735.41417,1.93906,394.227,34.362,45.067,44.999,0.00,0.09,-272.74,-272.80,-9,525,-942,21.5,18.4,-3.6,21.5,18.7,-3.3,5.73,1.90,-2.2,26.7
2015-10-02 01:41:00,0.0,1.92645,0.00069,391.361,0.065,0.6110,0.0028,140.000,44.999,31733.20431,1.93830,394.291,34.351,45.068,44.999,0.00,0.09,-272.74,-272.80,-8,525,-942,21.5,18.5,-3.5,21.5,18.8,-3.3,5.73,1.80,-2.1,26.7
2015-10-02 01:42:00,0.0,1.92565,0.00039,391.278,0.066,0.6148,0.0016,140.000,44.999,31731.73931,1.93751,394.223,34.372,45.068,45.000,0.00,0.09,-272.75,-272.80,-8,524,-942,21.5,18.7,-3.4,21.5,18.9,-3.2,5.73,1.89,-2.2,26.7
2015-10-02 01:43:00,0.0,1.92520,0.00054,391.411,0.094,0.6151,0.0020,140.000,45.000,31733.87288,1.93706,394.358,34.430,45.069,45.001,0.00,0.09,-272.74,-272.80,-8,524,-942,21.5,18.7,-3.4,21.5,19.0,-3.2,5.73,2.10,-2.1,26.7
2015-10-02 01:44:00,0.0,1.92560,0.00037,391.352,0.171,0.6156,0.0023,140.001,45.001,31736.62012,1.93752,394.314,34.480,45.069,45.001,0.00,0.09,-272.74,-272.80,-9,524,-942,21.5,18.7,-3.4,21.5,19.0,-3.1,5.73,2.01,-2.1,26.7
2015-10-02 01:45:00,0.0,1.92560,0.00035,391.198,0.052,0.6121,0.0015,140.002,45.001,31741.90381,1.93742,394.132,34.535,45.070,45.001,0.00,0.09,-272.74,-272.80,-9,524,-942,21.5,18.5,-3.5,21.5,18.9,-3.2,5.73,1.78,-2.1,26.8